Tracking 27401 objects as of 4-Jun-2023
HD Live streaming from Space Station
objects crossing your sky now

COSMOS 1275 DEB

Track COSMOS 1275 DEB now!
10-day predictions


NORAD ID: 12667
Int'l Code: 1981-053X
Perigee: 940.5 km
Apogee: 990.1 km
Inclination: 82.8 °
Period: 104.2 minutes
Semi major axis: 7336 km
RCS: 0.0155 m2 (small)
Launch date: June 4, 1981
Source: Commonwealth of Independent States (former USSR) (CIS)
Launch site: PLESETSK MISSILE AND SPACE COMPLEX (PKMTR)

Note: This is SATELLITE DEBRIS
Your satellite tracking list
Your tracking list is empty




NASA's NSSDC Master Catalog

Two Line Element Set (TLE):
1 12667U 81053X   23154.72285846  .00000657  00000-0  59959-3 0  9994
2 12667  82.8372 142.7086 0033828 318.2168 216.1635 13.81607084101212
Source of the keplerian elements: AFSPC